This demonstration page uses our WeatherBlox Daily Observations layout. Learn more.

Left ArrowRight Arrow

41.86663, -103.66717

Hourly Observations for June 4, 2022

Temp ( °F °C ) Dew Point ( °F °C ) Humidity (%) Winds ( mph kmh ) Pressure ( in mb ) Visibility ( mi km ) Precip ( " mm )
12:53 am 00:53 Partly Cloudy 57 13.9 47 8.3 69 69 NW 8 13 29.76 1008 10 16 0.00 0.00
1:53 am 01:53 Clear 57 13.9 48 8.9 72 72 Calm 29.75 1008 10 16 0.00 0.00
2:53 am 02:53 Clear 53 11.7 48 8.9 83 83 NW 5 7 29.75 1008 10 16 0.00 0.00
3:53 am 03:53 Clear 52 11.1 47 8.3 83 83 NW 7 11 29.74 1007 10 16 0.00 0.00
4:53 am 04:53 Clear 51 10.6 47 8.3 86 86 NW 5 7 29.74 1007 10 16 0.00 0.00
5:53 am 05:53 Sunny 51 10.6 47 8.3 86 86 NE 5 7 29.73 1007 10 16 0.00 0.00
6:53 am 06:53 Sunny 58 14.4 50 10 75 75 NE 7 11 29.74 1007 10 16 0.00 0.00
7:53 am 07:53 Sunny 61 16.1 51 10.6 70 70 SSW 3 6 29.75 1007 10 16 0.00 0.00
8:53 am 08:53 Sunny 67 19.4 53 11.7 61 61 SE 3 6 29.74 1007 10 16 0.00 0.00
9:53 am 09:53 Sunny 71 21.7 53 11.7 53 53 VRB 6 9 29.72 1006 10 16 0.00 0.00
10:53 am 10:53 Sunny 75 23.9 52 11.1 45 45 Calm 29.72 1006 10 16 0.00 0.00
11:53 am 11:53 Sunny 76 24.4 55 12.8 48 48 S 9 15 29.71 1006 10 16 0.00 0.00
12:53 pm 12:53 Sunny 78 25.6 51 10.6 39 39 Calm 29.70 1006 10 16 0.00 0.00
1:53 pm 13:53 Sunny 82 27.8 51 10.6 34 34 VRB 5 7 29.68 1005 10 16 0.00 0.00
2:53 pm 14:53 Sunny 83 28.3 50 10 32 32 ENE 9 15 29.68 1005 10 16 0.00 0.00
3:53 pm 15:53 Sunny 84 28.9 49 9.4 30 30 undefined N/A 29.67 1005 10 16 0.00 0.00
4:53 pm 16:53 Sunny 85 29.4 49 9.4 29 29 undefined N/A 29.65 1004 10 16 0.00 0.00
5:53 pm 17:53 Sunny 83 28.3 49 9.4 31 31 ENE 9 15 29.65 1004 10 16 0.00 0.00
6:53 pm 18:53 Sunny 80 26.7 49 9.4 34 34 E 13 20 29.66 1004 10 16 0.00 0.00
7:18 pm 19:18 Mostly Cloudy 78 25.6 45 7.2 31 31 S 7 11 29.53 1000 10 16 0.00 0.00
7:53 pm 19:53 Mostly Cloudy 74 23.3 46 7.8 37 37 SSE 5 7 29.67 1005 10 16 0.00 0.00
8:53 pm 20:53 Clear 68 20 48 8.9 49 49 NE 6 9 29.65 1004 10 16 0.00 0.00
9:53 pm 21:53 Clear 68 20 52 11.1 57 57 NNE 9 15 29.67 1005 10 16 0.00 0.00
10:53 pm 22:53 Clear 68 20 56 13.3 65 65 NE 18 30 29.65 1004 10 16 0.00 0.00
11:53 pm 23:53 Clear 65 18.3 56 13.3 73 73 ENE 14 22 29.69 1005 10 16 0.00 0.00

Powered by AerisWeather